x

Silver Bay, Mn (slvm5) Weather Station

11:09am - Sun 23rd Jul 2017 All times are CDT. -5 hours from GMT.

  • Wind
    2mph, 5mph gusts
  • Air Temp 61°f
  • Sea Pressure 1013.9mb
  • Silver Bay, Mn
  • Silver Bay, Mn

More Historic Weather Station data

Upgrade to MSW Pro to gain access to the past 30 days of data for over 8000 Wavebouys and Weather Stations around the globe.

Join Pro

Comparision Forecast

View Surf forecast
   
Sun 07/23 11:09am 2 5 mph 1013.9mb 61f
10:40am  -  2 mph 1013.5mb 59f
10:30am 1 2 mph 1013.5mb 60f
10:20am 2 5 mph 1013.2mb 60f
10:10am 3 7 mph 1013.2mb 59f
10:08am 3 9 mph 1013.2mb 59f
10:00am 6 7 mph 1013.2mb 59f
9:40am 6 9 mph 1012.9mb 59f
9:30am 6 7 mph 1012.9mb 60f
9:20am 3 5 mph 1012.9mb 60f
9:10am 2 3 mph 1012.9mb 59f
9:08am 2 3 mph 1012.9mb 59f
9:00am 1 2 mph 1012.5mb 59f
8:40am  -  2 mph 1012.5mb 59f
8:30am  -  2 mph 1012.5mb 59f
8:20am 1 2 mph 1012.2mb 59f
8:10am 1 1 mph 1012.2mb 59f
8:07am  -  5 mph 1012.2mb 59f
8:00am  -  0 mph 1012.2mb 59f
7:40am 2 3 mph 1011.9mb 59f
7:30am 2 5 mph 1011.9mb 58f
7:20am  -  3 mph 1011.9mb 58f
7:10am 1 3 mph 1011.5mb 58f
7:07am 2 7 mph 1011.5mb 58f
7:00am 3 6 mph 1011.5mb 58f
6:40am  -  7 mph 1011.5mb 58f
6:30am 3 6 mph 1011.2mb 58f
6:20am 3 7 mph 1011.2mb 58f
6:10am 2 6 mph 1011.2mb 57f
6:07am 3 7 mph 1011.2mb 57f
6:00am 2 6 mph 1011.2mb 57f
5:40am 2 3 mph 1010.8mb 57f
5:30am 2 7 mph 1010.8mb 57f
5:20am 5 7 mph 1010.8mb 57f
5:10am 5 7 mph 1010.8mb 57f
5:06am 3 9 mph 1010.8mb 57f
5:00am 3 8 mph 1010.8mb 57f
4:40am 3 6 mph 1010.8mb 57f
4:30am 3 6 mph 1010.5mb 57f
4:20am 2 9 mph 1010.5mb 57f
4:10am 2 5 mph 1010.5mb 56f
4:06am 2 6 mph 1010.5mb 56f
4:00am 3 3 mph 1010.5mb 57f
3:40am 2 3 mph 1009.8mb 57f
3:30am 2 6 mph 1009.8mb 57f
3:20am 5 5 mph 1009.5mb 57f
3:10am 2 3 mph 1009.5mb 57f
3:05am 3 7 mph 1009.5mb 56f
3:00am 3 6 mph 1009.8mb 56f
2:40am 3 6 mph 1009.8mb 55f
2:30am 2 5 mph 1009.8mb 56f
2:20am 2 7 mph 1009.8mb 56f
2:10am 5 7 mph 1009.8mb 56f
2:05am 2 7 mph 1009.8mb 56f
2:00am 3 6 mph 1009.8mb 56f
1:40am 3 7 mph 1010.2mb 56f
1:30am 3 7 mph 1010.2mb 56f
1:20am 2 5 mph 1010.5mb 56f
1:10am 3 6 mph 1010.5mb 56f
1:05am 3 9 mph 1010.5mb 56f
1:00am 3 8 mph 1010.5mb 56f
12:40am 6 9 mph 1010.8mb 56f
12:30am 5 7 mph 1010.8mb 56f
12:20am 5 6 mph 1010.8mb 56f
12:10am 2 7 mph 1010.8mb 56f
12:04am 3 13 mph 1010.8mb 56f
12:00am 3 7 mph 1010.8mb 56f
Sat 07/22 11:40pm 7 8 mph 1010.8mb 57f
11:30pm 7 11 mph 1010.8mb 57f
11:20pm 9 13 mph 1010.8mb 57f
11:10pm 9 13 mph 1010.8mb 56f
11:04pm 9 15 mph 1010.8mb 56f
11:00pm 8 15 mph 1010.8mb 56f
10:40pm 6 10 mph 1010.8mb 56f
10:30pm 7 10 mph 1010.5mb 57f
10:20pm 8 10 mph 1010.5mb -
10:10pm 10 11 mph 1010.5mb 57f
10:03pm 7 11 mph 1010.2mb 57f
10:00pm 9 10 mph 1010.2mb 57f
9:40pm 7 9 mph 1010.5mb 57f
9:30pm 6 9 mph 1010.2mb 57f
9:20pm 5 10 mph 1009.8mb 57f
9:10pm 8 11 mph 1009.8mb 57f
9:03pm 6 11 mph 1009.8mb 57f
9:00pm 6 9 mph 1009.8mb 57f
8:40pm 6 9 mph 1009.5mb 57f
8:30pm 7 11 mph 1009.8mb 57f
8:20pm 5 10 mph 1009.5mb 57f
8:10pm 5 9 mph 1009.5mb 57f
8:02pm 5 9 mph 1009.8mb 57f
8:00pm 6 13 mph 1009.8mb 57f
7:40pm 9 14 mph 1009.8mb -
7:30pm 6 11 mph 1010.2mb 57f
7:20pm 9 14 mph 1009.8mb 58f
7:10pm 7 10 mph 1010.2mb 58f
7:02pm 7 14 mph 1010.2mb 58f
7:00pm 6 14 mph 1010.2mb 58f
6:40pm 7 11 mph 1010.2mb 58f
6:30pm 7 11 mph 1010.2mb 58f
6:20pm 9 14 mph 1009.8mb 58f
6:10pm 9 14 mph 1009.8mb 58f
6:02pm 8 16 mph 1010.2mb 59f
6:00pm 11 16 mph 1010.2mb 59f
5:40pm 10 16 mph 1010.5mb 59f
5:30pm 8 14 mph 1010.5mb 60f
5:20pm 10 15 mph 1010.5mb 59f
5:10pm 13 15 mph 1010.5mb 59f
5:01pm 10 20 mph 1010.5mb 58f
5:00pm 10 15 mph 1010.5mb 58f
4:40pm 10 17 mph 1010.5mb 60f
4:30pm 10 17 mph 1010.5mb 60f
4:20pm 15 20 mph 1010.5mb 60f
4:10pm 10 18 mph 1010.8mb 61f
4:01pm 9 17 mph 1010.8mb 61f
4:00pm 9 16 mph 1010.8mb 61f
3:40pm 15 17 mph 1010.8mb 61f
3:30pm 15 17 mph 1010.8mb 60f
3:20pm 11 15 mph 1011.2mb 62f
3:10pm 10 17 mph 1011.2mb 62f
3:00pm 14 18 mph 1010.8mb 61f
2:40pm 13 17 mph 1010.8mb 63f
2:30pm 11 18 mph 1010.8mb 63f
2:20pm 13 18 mph 1010.8mb 62f
2:10pm 10 18 mph 1010.8mb 63f
2:00pm 13 17 mph 1010.5mb 62f
1:40pm 11 16 mph 1010.5mb 62f
1:30pm 10 17 mph 1010.5mb 62f
1:20pm 13 17 mph 1010.5mb 62f
1:10pm 10 16 mph 1010.5mb 62f
1:00pm 9 15 mph 1010.5mb 62f
12:40pm 7 14 mph 1010.5mb 62f
12:30pm 9 13 mph 1010.5mb 61f
12:20pm 11 13 mph 1010.8mb 61f
12:10pm 9 14 mph 1010.8mb 61f
12:00pm 9 14 mph 1010.5mb 63f
11:50am 9 15 mph 1010.5mb 62f
11:40am 10 16 mph 1010.5mb 61f
11:30am 13 15 mph 1010.5mb 61f
11:20am 10 13 mph 1010.8mb 61f
11:10am 10 14 mph 1010.8mb 61f
11:04am 10 20 mph 1010.8mb 62f
11:00am 13 16 mph 1010.8mb 62f
10:50am 10 18 mph 1010.5mb 63f
10:40am 11 20 mph 1010.2mb 63f
10:30am 9 18 mph 1010.5mb 62f
10:20am 7 16 mph 1010.5mb 62f
10:10am 9 17 mph 1010.8mb 63f
10:03am 9 20 mph 1010.5mb 62f
10:00am 9 20 mph 1010.5mb 62f
9:50am 11 18 mph 1010.5mb 62f
9:40am 10 16 mph 1010.5mb 61f
9:30am 8 17 mph 1010.5mb 61f
9:20am 7 17 mph 1010.8mb 61f
9:10am 9 17 mph 1010.8mb 60f
9:03am 9 17 mph 1010.5mb 59f
9:00am 9 15 mph 1010.5mb 59f
8:50am 8 13 mph 1010.5mb 59f
8:40am 8 13 mph 1010.8mb 60f
8:30am 7 11 mph 1011.2mb 60f
8:20am 8 13 mph 1010.8mb 61f
8:10am 6 10 mph 1011.2mb 61f
8:02am 5 9 mph 1010.8mb 61f
8:00am 5 11 mph 1010.8mb 61f
7:50am 8 13 mph 1010.5mb 62f
7:40am 6 11 mph 1010.5mb -
7:30am 7 15 mph 1010.2mb 61f
7:20am 7 13 mph 1010.2mb 62f
7:10am 5 11 mph 1009.8mb 63f
7:02am 7 11 mph 1009.8mb 64f
7:00am 3 10 mph 1009.8mb 64f
6:50am 6 10 mph 1009.8mb 64f
6:40am 5 9 mph 1009.8mb 63f
6:30am 6 9 mph 1010.5mb 62f
6:20am 3 10 mph 1009.8mb 62f
6:10am 6 9 mph 1009.8mb 61f
6:02am 5 13 mph 1009.8mb 61f
6:00am 6 9 mph 1009.8mb 61f
5:50am 6 13 mph 1009.8mb 61f
5:40am 7 9 mph 1009.8mb 60f
5:30am 7 9 mph 1009.5mb 60f
5:20am 6 9 mph 1009.5mb -
5:10am 6 11 mph 1009.5mb 61f
5:01am 6 9 mph 1009.5mb 61f
5:00am 6 9 mph 1009.5mb 61f
4:50am 7 11 mph 1009.5mb 61f
4:40am 8 11 mph 1009.8mb 61f
4:30am 7 11 mph 1009.8mb 61f
4:20am 7 10 mph 1009.8mb 60f
4:10am 6 8 mph 1009.8mb 60f
4:01am 5 17 mph 1009.8mb 61f
4:00am 5 10 mph 1009.8mb 61f
3:50am 9 15 mph 1009.8mb 62f
3:40am 8 16 mph 1009.8mb 62f
3:30am 10 17 mph 1009.5mb 62f
3:20am 10 16 mph 1009.5mb 63f
3:10am 8 16 mph 1009.5mb 63f
3:00am 8 11 mph 1009.1mb 63f
2:50am 7 11 mph 1009.1mb 63f
2:40am 8 13 mph 1009.1mb 62f
2:30am 6 10 mph 1008.8mb 62f
2:20am 6 10 mph 1008.8mb 62f
2:10am 7 13 mph 1008.8mb 62f
2:00am 7 13 mph 1008.8mb 62f
1:50am 8 11 mph 1008.8mb 62f
1:40am 6 10 mph 1008.8mb 62f
1:30am 8 10 mph 1008.8mb 62f
1:20am 7 11 mph 1009.1mb 62f
1:10am 6 10 mph 1009.1mb 62f
1:00am 6 10 mph 1009.1mb 63f
12:50am 5 9 mph 1008.8mb 61f
12:40am  -  3 mph 1009.1mb 60f
12:30am  -  3 mph 1009.1mb 61f
12:20am 1 3 mph 1009.1mb 61f
12:10am  -  2 mph 1009.1mb 61f
12:00am 2 5 mph 1009.1mb 62f
Fri 07/21 11:50pm 3 8 mph 1009.1mb 62f
11:40pm 5 9 mph 1009.5mb 62f
11:30pm 7 10 mph 1009.5mb 62f
11:20pm 6 8 mph 1009.8mb 63f
11:10pm 2 9 mph 1009.8mb 63f
11:00pm 3 8 mph 1009.8mb 64f
10:50pm 6 10 mph 1009.8mb 63f
10:40pm 6 9 mph 1009.5mb 64f
10:30pm 2 11 mph 1010.2mb 63f
10:20pm 2 8 mph 1010.5mb 65f
10:10pm 8 14 mph 1010.2mb 61f
10:01pm 5 29 mph 1010.2mb 61f
10:00pm 5 16 mph 1009.8mb 61f
9:50pm 13 20 mph 1008.8mb 60f
9:40pm 20 29 mph 1008.8mb 59f
9:30pm 25 29 mph 1009.5mb 60f
9:20pm 16 17 mph 1010.2mb 59f
9:10pm 13 15 mph 1010.8mb 61f
9:00pm 3 5 mph 1011.2mb 64f
8:50pm 2 2 mph 1011.9mb 63f
8:40pm  -  3 mph 1012.2mb 64f
8:30pm 2 10 mph 1012.2mb 64f
8:20pm 7 11 mph 1011.9mb 65f
8:10pm 6 10 mph 1011.5mb 67f
8:00pm 7 10 mph 1011.9mb 68f
7:50pm 6 11 mph 1012.2mb 68f
7:40pm 8 11 mph 1012.5mb 68f
7:30pm 7 14 mph 1012.5mb 68f
7:20pm 7 11 mph 1012.2mb 67f
7:10pm 6 11 mph 1011.9mb 67f
7:00pm 7 11 mph 1011.9mb 67f
6:50pm 6 14 mph 1011.2mb 67f
6:40pm 7 13 mph 1011.2mb 67f
6:30pm 8 13 mph 1011.2mb 67f
6:20pm 7 13 mph 1011.5mb 67f
6:10pm 8 14 mph 1011.5mb 68f
6:00pm 7 13 mph 1011.2mb 68f
5:50pm 5 13 mph 1011.2mb 68f
5:40pm 6 15 mph 1011.2mb 68f
5:30pm 7 15 mph 1011.5mb 69f
5:20pm 7 15 mph 1011.2mb 69f
5:10pm 8 14 mph 1011.5mb 69f
5:00pm 7 16 mph 1011.5mb 68f
4:50pm 7 14 mph 1011.9mb 69f
4:40pm 8 14 mph 1011.9mb 69f
4:30pm 8 16 mph 1012.2mb 69f
4:20pm 9 16 mph 1012.2mb 69f
4:10pm 9 16 mph 1012.5mb 69f
4:00pm 7 16 mph 1012.5mb 69f
3:50pm 9 15 mph 1012.5mb 69f
3:40pm 8 14 mph 1012.5mb 69f
3:30pm 8 15 mph 1012.5mb 69f
3:20pm 8 13 mph 1012.5mb 71f
3:10pm 9 15 mph 1012.5mb 70f
3:01pm 6 14 mph 1012.9mb 71f
3:00pm 6 13 mph 1012.9mb 71f
2:50pm 8 14 mph 1012.5mb 69f
2:40pm 7 13 mph 1012.9mb 70f
2:30pm 7 14 mph 1013.2mb 69f
2:20pm 8 13 mph 1013.2mb 68f
2:10pm 8 14 mph 1013.5mb 67f
2:00pm 9 13 mph 1013.5mb 64f
1:50pm 9 13 mph 1013.9mb 65f
1:40pm 9 13 mph 1013.9mb 68f
1:30pm 8 14 mph 1013.9mb 68f
1:20pm 9 15 mph 1013.9mb 67f
1:10pm 8 15 mph 1013.9mb 72f
1:00pm 8 15 mph 1013.9mb 69f
12:50pm 8 15 mph 1013.9mb 67f
12:40pm 7 14 mph 1014.2mb 67f
12:30pm 8 14 mph 1014.2mb 67f
12:20pm 6 11 mph 1014.6mb 67f
12:10pm 7 11 mph 1014.6mb 66f
12:00pm 7 13 mph 1014.6mb 65f
11:50am 9 13 mph 1014.6mb 65f
11:40am 2 8 mph 1014.6mb 65f
11:30am 8 8 mph 1014.6mb 62f
11:20am 6 6 mph 1014.6mb 63f
11:10am 3 3 mph 1014.6mb 66f
11:00am 1 2 mph 1014.2mb 67f
10:50am  -  5 mph 1013.9mb 66f
10:40am 5 6 mph 1014.2mb 65f
10:30am 1 3 mph 1013.9mb 67f
10:20am  -  5 mph 1013.9mb 64f
10:10am 2 5 mph 1013.9mb 64f
10:00am 3 3 mph 1014.2mb 65f
9:50am 3 3 mph 1014.2mb 64f
9:40am  -  3 mph 1014.6mb 63f
9:30am 2 3 mph 1014.9mb 63f
9:20am  -  1 mph 1014.9mb 63f
9:10am  -  1 mph 1014.9mb 63f
9:00am  -  2 mph 1014.9mb 62f
8:50am 1 2 mph 1014.6mb 61f
8:40am 2 2 mph 1014.2mb 62f
8:30am 3 5 mph 1014.2mb 62f
8:20am 3 5 mph 1013.9mb 61f
8:10am 3 5 mph 1013.5mb 60f
8:00am 1 2 mph 1013.9mb 61f
7:40am 2 3 mph 1013.9mb 62f
7:30am  -  5 mph 1014.2mb 61f
7:20am 2 5 mph 1013.9mb 60f
7:10am 1 2 mph 1013.9mb 64f
7:00am  -  0 mph 1013.5mb 63f
6:50am  -  2 mph 1013.5mb 60f
6:40am  -  2 mph 1013.5mb 61f
6:30am  -  5 mph 1013.5mb 64f
6:20am 3 3 mph 1013.5mb 66f
6:10am 2 3 mph 1013.5mb 64f
6:00am 2 2 mph 1013.5mb 64f
5:50am 1 2 mph 1013.5mb 63f
5:40am  -  2 mph 1013.5mb 63f
5:30am 2 2 mph 1013.5mb 61f
5:20am 2 2 mph 1013.9mb 61f
5:10am  -  3 mph 1013.9mb 62f
5:00am 2 3 mph 1013.9mb 61f
4:50am 2 2 mph 1013.9mb 61f
4:40am 3 5 mph 1013.5mb 61f
4:30am 3 5 mph 1013.9mb 61f
4:20am 3 7 mph 1013.9mb 60f
4:10am 6 7 mph 1013.9mb 60f
4:00am 2 6 mph 1013.9mb 64f
3:50am 5 6 mph 1013.9mb 66f
3:40am  -  2 mph 1013.9mb 65f
3:30am 2 3 mph 1013.9mb 65f
3:20am 1 2 mph 1013.9mb 66f
3:10am 1 2 mph 1013.9mb 65f
3:00am  -  1 mph 1014.2mb 66f
2:50am  -  1 mph 1014.2mb 66f
2:40am  -  1 mph 1014.2mb 66f
2:30am  -  5 mph 1013.9mb 66f
2:20am 2 3 mph 1013.9mb 66f
2:10am 2 3 mph 1013.9mb 65f
2:00am 1 2 mph 1013.9mb 64f
1:50am 1 2 mph 1013.9mb 64f
1:40am  -  1 mph 1013.9mb 64f
1:30am 1 2 mph 1013.9mb 65f
1:20am 1 2 mph 1013.5mb 65f
1:10am 1 2 mph 1013.5mb 66f
1:00am 1 3 mph 1013.9mb 67f
12:50am 3 5 mph 1013.9mb 66f
12:40am 3 3 mph 1013.9mb 66f
12:30am 2 3 mph 1014.2mb 64f
12:20am 1 6 mph 1014.2mb 65f
12:10am 2 3 mph 1013.9mb 64f
12:00am 1 2 mph 1013.9mb 63f
Thu 07/20 11:50pm 2 2 mph 1013.9mb 62f
11:40pm 2 3 mph 1013.9mb 65f
11:30pm 3 6 mph 1013.9mb 65f
11:20pm 3 6 mph 1013.9mb 64f
11:10pm 1 6 mph 1013.9mb 69f
11:00pm 2 13 mph 1013.9mb 72f
10:40pm 5 7 mph 1013.5mb 71f
10:30pm 3 6 mph 1013.5mb 69f
10:20pm  -  5 mph 1013.9mb 67f
10:10pm  -  6 mph 1013.9mb 69f
10:00pm 3 9 mph 1013.9mb 75f
9:50pm 5 8 mph 1013.5mb 74f
9:40pm 5 7 mph 1013.5mb 72f
9:30pm 3 7 mph 1013.5mb 74f
9:20pm 5 8 mph 1013.2mb 76f
9:10pm 5 8 mph 1013.2mb 77f
9:00pm 6 8 mph 1013.2mb 77f
8:50pm 5 8 mph 1013.2mb 78f
8:40pm 5 6 mph 1013.2mb 76f
8:30pm 5 7 mph 1012.9mb 75f
8:20pm 6 8 mph 1012.9mb 73f
8:10pm 5 8 mph 1012.9mb 77f
8:00pm 5 7 mph 1012.9mb 80f
7:50pm 3 8 mph 1012.9mb 81f
7:40pm 6 10 mph 1012.9mb 81f
7:30pm 6 10 mph 1012.9mb 81f
7:20pm 7 11 mph 1012.9mb 81f
7:10pm 8 11 mph 1012.9mb 79f
7:00pm 7 10 mph 1012.9mb -
6:50pm 7 9 mph 1012.9mb -
6:40pm 7 13 mph 1012.9mb -
6:30pm 8 11 mph 1012.9mb -
6:20pm 6 10 mph 1012.9mb 83f
6:10pm 8 11 mph 1012.9mb 83f
6:00pm 7 11 mph 1012.9mb 84f
5:50pm 7 13 mph 1012.9mb 83f
5:40pm 9 15 mph 1013.2mb 78f
5:30pm 3 8 mph 1013.2mb 70f
5:20pm 3 6 mph 1013.2mb 66f
5:10pm 6 10 mph 1013.2mb 74f
5:00pm 7 13 mph 1013.2mb -
4:50pm 3 9 mph 1013.5mb 74f
4:40pm 5 13 mph 1013.5mb 67f
4:30pm 11 13 mph 1013.5mb 68f
4:20pm 7 13 mph 1013.5mb 68f
4:10pm 13 16 mph 1013.9mb 66f
4:01pm 13 16 mph 1013.5mb 65f
4:00pm 13 16 mph 1013.5mb 65f
3:50pm 11 15 mph 1013.9mb 66f
3:40pm 15 16 mph 1013.9mb 63f
3:30pm 11 14 mph 1013.5mb 65f
3:20pm 14 16 mph 1013.5mb 66f
3:10pm 11 16 mph - 66f
3:01pm 8 21 mph 1013.5mb 65f
3:00pm 8 17 mph 1013.5mb 65f
2:50pm 14 17 mph 1013.5mb 66f
2:40pm 11 16 mph 1013.5mb 66f
2:30pm 13 21 mph 1013.5mb 67f
2:20pm 13 18 mph 1013.5mb 69f
2:10pm 14 20 mph 1013.5mb 69f
2:00pm 17 24 mph 1013.5mb 68f
1:50pm 17 22 mph 1013.5mb 67f
1:40pm 17 25 mph 1013.9mb 67f
1:30pm 17 28 mph 1013.9mb 67f
1:20pm 18 23 mph 1013.9mb 69f
1:10pm 20 24 mph 1013.9mb 66f
1:00pm 20 23 mph 1013.9mb 65f
12:50pm 20 23 mph 1013.9mb 65f
12:40pm 20 24 mph 1014.2mb 65f
12:30pm 20 23 mph 1014.2mb 64f
12:20pm 15 18 mph 1014.2mb 63f
12:10pm 11 17 mph 1013.9mb 63f
12:00pm 9 16 mph 1014.2mb 67f
11:50am 13 14 mph 1014.2mb 65f
11:40am 11 14 mph 1014.2mb 65f
11:30am 10 16 mph 1013.9mb 72f
11:20am 7 14 mph 1013.9mb 78f
11:10am 9 16 mph 1013.9mb 80f
11:00am 6 14 mph 1013.9mb 81f
10:50am 9 15 mph 1013.9mb 80f
10:40am 10 16 mph 1013.9mb 79f
10:30am 5 15 mph 1013.9mb 79f
10:20am 9 14 mph 1013.9mb 73f
10:10am 2 7 mph 1013.9mb 76f
10:00am 6 13 mph 1013.9mb 69f
9:50am 6 10 mph 1013.9mb 68f
9:40am 7 16 mph 1013.9mb 63f
9:30am 11 15 mph 1013.9mb 62f
9:20am 7 11 mph 1013.9mb 63f
9:10am 10 16 mph 1013.9mb 62f
9:00am 13 16 mph 1013.9mb 62f
8:50am 14 16 mph 1013.9mb 60f
8:40am 10 13 mph 1013.5mb 63f
8:30am 11 13 mph 1013.5mb 62f
8:20am 11 13 mph 1013.9mb 65f
8:10am 5 7 mph 1013.5mb 67f
8:00am 3 21 mph 1013.2mb 64f
7:50am 8 11 mph 1013.2mb 62f
7:40am 8 14 mph 1013.5mb 62f
7:30am 6 9 mph 1013.5mb 69f
7:20am 5 18 mph 1013.2mb 69f
7:10am 11 21 mph 1012.9mb 68f
7:00am 13 21 mph 1012.5mb 68f
6:50am 14 24 mph 1012.9mb 67f
6:40am 16 25 mph 1012.2mb 66f
6:30am 11 18 mph 1012.2mb 65f
6:20am 6 13 mph 1012.5mb 63f
6:10am 6 11 mph 1012.9mb 60f
6:00am 8 10 mph 1012.5mb 62f
5:50am 3 9 mph 1012.5mb 61f
5:40am 8 10 mph 1012.5mb 61f
5:30am 8 9 mph 1012.5mb 61f
5:20am 3 8 mph 1012.5mb 62f
5:10am 5 9 mph 1012.5mb 62f
5:00am 6 10 mph 1012.5mb 61f
4:50am 6 7 mph 1012.9mb 60f
4:40am 5 7 mph 1012.9mb 58f
4:30am 7 8 mph 1012.5mb 58f
4:20am 6 8 mph 1012.5mb 58f
4:10am 8 10 mph 1012.5mb 58f
4:00am 9 10 mph 1012.5mb 59f
3:50am 7 9 mph 1012.5mb 58f
3:40am 5 7 mph 1012.5mb 58f
3:30am 3 6 mph 1012.2mb 59f
3:20am 3 5 mph 1012.2mb 58f
3:10am 5 6 mph 1012.2mb 57f
3:00am 5 6 mph 1012.2mb 57f
2:50am 3 5 mph 1012.2mb 57f
2:40am 5 6 mph 1012.2mb 57f
2:30am 3 3 mph 1012.2mb 57f
2:20am 3 3 mph 1012.2mb 58f
2:10am  -  1 mph 1012.2mb 58f
2:00am  -  2 mph 1012.5mb 58f
1:50am  -  2 mph 1012.5mb 59f
1:40am  -  3 mph 1012.5mb 60f
1:30am 2 3 mph 1012.5mb 59f
1:20am 2 2 mph 1012.5mb 59f
1:10am 3 5 mph 1012.5mb 59f
1:00am 1 2 mph 1012.9mb 60f
12:50am  -  2 mph 1012.9mb 60f
12:40am 2 2 mph 1012.9mb 61f
12:30am  -  0 mph 1012.9mb 62f
12:20am  -  1 mph 1012.9mb 64f
12:10am  -  2 mph 1012.9mb 63f
12:00am  -  5 mph 1012.9mb 64f
Wed 07/19 11:50pm 5 7 mph 1012.9mb 64f
11:40pm 6 8 mph 1013.2mb 64f
11:30pm 5 8 mph 1012.9mb 64f
11:20pm 6 8 mph 1013.2mb 64f
11:10pm 5 9 mph 1013.2mb 64f
11:00pm 6 9 mph 1013.2mb 64f
10:50pm 6 9 mph 1013.2mb 63f
10:40pm 6 9 mph 1013.2mb 63f
10:30pm 6 11 mph 1013.2mb 64f
10:20pm 6 10 mph 1013.2mb 64f
10:10pm 7 11 mph 1013.5mb 63f
10:00pm 7 9 mph 1013.2mb 63f
9:50pm 6 9 mph 1013.5mb 62f
9:40pm 5 9 mph 1013.5mb 63f
9:30pm 6 10 mph 1013.5mb 63f
9:20pm 5 9 mph 1013.5mb 63f
9:10pm 5 10 mph 1013.5mb 64f
9:00pm 6 9 mph 1013.5mb 64f
8:50pm 5 8 mph 1013.5mb 64f
8:40pm 7 11 mph 1013.9mb 64f
8:30pm 8 11 mph 1013.5mb 64f
8:20pm 7 10 mph 1013.5mb 63f
8:10pm 6 9 mph 1013.5mb 63f
8:00pm 7 9 mph 1013.5mb 62f
7:50pm 5 8 mph 1013.5mb 64f
7:40pm 6 8 mph 1013.5mb 64f
7:30pm 6 9 mph 1013.5mb 63f
7:20pm 7 8 mph 1013.5mb 63f
7:10pm 6 9 mph 1013.5mb 63f
7:00pm 7 13 mph 1013.5mb 63f
6:50pm 7 11 mph 1013.5mb 63f
6:40pm 6 10 mph 1013.5mb 63f
6:30pm 6 13 mph 1013.9mb -
6:20pm 5 10 mph 1013.9mb 63f
6:10pm 7 11 mph 1013.5mb 64f
6:00pm 8 11 mph 1013.5mb 63f
5:50pm 8 14 mph 1014.2mb 63f
5:40pm 8 13 mph 1014.2mb 63f
5:30pm 6 11 mph 1014.2mb 62f
5:20pm 8 11 mph 1014.6mb 63f